Wynyard / W.B. Needham Field

Jump to: basic info | weather | frequencies | runways | comments

Related pages: nearby airports | nearby navaids | notams | map

Basic information (top)

Codes: CYYO
Location: lon 51.809888, lat -104.169788, elev 1,740 ft / 530 m msl
Status: small_airport
Scheduled airline service: no
Links: Wikipedia Mobile

Weather (top)

Current conditions for Yorkton Municipal Airport 72nm (133km) ESE (rec'd 2015/01/31 12:00Z):

CYQV 311200Z AUTO 03010KT 9SM CLR M21/M24 A3043 RMK SLP354

Airport forecast for Yorkton Municipal Airport 72nm (133km) ESE (rec'd 2015/01/31 12:39Z):

TAF CYQV 311138Z 3112/3124 03010KT P6SM SCT150 
      BECMG 3122/3124 30005KT 
      RMK FCST BASED ON AUTO OBS. NXT FCST BY 311800Z

Frequencies (top)

Verify before use: may be inaccurate or out of date.

ATF: 123.2 MHz (ATF)

Runways (top)

09/27: 3,000 x 75 ft (914 x 23 m) — paved — lighted

Latest comments (top)

Wynyard Airport renamed W.B. Needham Field: The Wynyard Airport was renamed "W.B. ... [read]

More... (top)

See also NOTAMs and nearby airports and navaids, or visit the Wynyard / W.B. Needham Field page at the main OurAirports website..